Regional Weather Roundup
Issued by NWS Cleveland, OH

Home | Current Version | Previous Version | Graphics & Text | Print | Product List | Glossary On
Versions: 1 2 3 4 5 6 7 8 9 10 11 12 13 14 15 16 17 18 19 20 21 22 23 24 25 26 27 28 29 30 31 32 33 34 35 36 37 38 39 40 41 42 43 44 45 46 47 48 49 50
000
ASUS41 KCLE 262010
RWRCLE
OHIO REGIONAL WEATHER ROUNDUP
NATIONAL WEATHER SERVICE WILMINGTON, OH
300 PM EST FRI DEC 26 2014

NOTE: "FAIR" INDICATES FEW OR NO CLOUDS BELOW 12,000 FEET WITH NO
SIGNIFICANT WEATHER AND/OR OBSTRUCTIONS TO VISIBILITY.

OHZ001>008-015>018-024>027-034-035-043-044-262100-
   NORTHWEST OHIO

CITY           SKY/WX    TMP DP  RH WIND       PRES   REMARKS
DEFIANCE       MOSUNNY   49  39  68 SW13      30.09F
FINDLAY        SUNNY     50  39  66 S16       30.10F
TOLEDO EXPRESS MOSUNNY   47  37  68 SW13      30.09S
TOLEDO METCALF MOSUNNY   48  37  65 SW18      30.10S
LIMA           SUNNY     49  38  65 S17G23    30.11F
$$

OHZ009>014-019>023-028>033-038-089-262100-
   NORTHEAST OHIO

CITY           SKY/WX    TMP DP  RH WIND       PRES   REMARKS
CLE-HOPKINS    MOSUNNY   49  35  58 S9G21     30.14F
CLE-LAKEFRONT  SUNNY     51  35  54 S14       30.11F
CUY CO. ARPT   PTSUNNY   52  36  54 S14       30.12F
LORAIN-ELYRIA  SUNNY     48  37  65 SW13      30.11F
ASHTABULA      SUNNY     47  34  60 SW12      30.12F
AKRON-CANTON   PTSUNNY   49  34  56 SW16G22   30.14S
WOOSTER        SUNNY     48  36  63 SW20      30.14S
MANSFIELD      SUNNY     48  37  65 S14       30.12F
YOUNGSTOWN     MOSUNNY   48  33  56 SW14G22   30.14F
$$

OHZ042-051>053-060>062-070>072-077>081-262100-
  SOUTHWEST OHIO

CITY           SKY/WX    TMP DP  RH WIND       PRES   REMARKS
CINC-COVINGTON PTSUNNY   51  35  54 SW9       30.17F
CINC-LUNKEN    MOSUNNY   52  37  56 S10       30.19F
HAMILTON       MOSUNNY   53  37  54 VRB7      30.17F
DAYTON         CLOUDY    50  38  63 S12       30.15F
WRIGHT-PAT AFB CLOUDY    49  37  63 S10       30.16S
DAYTON GENERAL CLOUDY    50  37  61 S12       30.15F
WILMINGTON     CLOUDY    49  38  65 S13       30.17S
$$

OHZ036-037-039>041-045>050-054>059-063>069-073>076-082>088-262100-
  CENTRAL AND SOUTHEAST OHIO

CITY           SKY/WX    TMP DP  RH WIND       PRES   REMARKS
COLUMBUS       PTSUNNY   47  36  65 SW10      30.18S
OSU AIRPORT    PTSUNNY   48  37  65 S14       30.17S
BOLTON FIELD   CLOUDY    46  39  76 S8        30.18S
RICKENBACK AFB PTSUNNY   48  37  64 SW13      30.18S
NEWARK         PTSUNNY   48  37  65 SW8       30.17F
MARION         MOSUNNY   45  36  70 SW14      30.14S
LANCASTER      PTSUNNY   49  36  61 S9        30.19F
ZANESVILLE     MOSUNNY   48  34  58 S10       30.18F
NEW PHILLY     SUNNY     50  34  54 SW9       30.18S
$$



USA.gov is the U.S. government's official web portal to all federal, state and local government web resources and services.